This is the latest recevied weather packets stored in our database for station/object DL4MGC-10. If no packets are shown the sender has not sent any weather packets the latest 10 day(s).
| Time | Temp. | Humidity | Pressure | Rain* | Wind** | Luminosity | Snow |
|---|---|---|---|---|---|---|---|
| 1787986584 | 18.89° C | 87% | 1018.3 hPa | - | - | - | - |
| 1787985684 | 18.89° C | 90% | 1018.2 hPa | - | - | - | - |
| 1787984784 | 18.33° C | 90% | 1018.2 hPa | - | - | - | - |
| 1787983884 | 16.67° C | 97% | 1018.2 hPa | - | - | - | - |
| 1787982984 | 13.89° C | 100% | 1018.1 hPa | - | - | - | - |
| 1787982084 | 15° C | 100% | 1018 hPa | - | - | - | - |
| 1787981184 | 13.89° C | 100% | 1017.9 hPa | - | - | - | - |
| 1787980283 | 14.44° C | 100% | 1017.8 hPa | - | - | - | - |
| 1787979383 | 14.44° C | 100% | 1017.8 hPa | - | - | - | - |
| 1787978483 | 13.89° C | 100% | 1017.8 hPa | - | - | - | - |
| 1787977583 | 14.44° C | 100% | 1017.7 hPa | - | - | - | - |
| 1787976683 | 14.44° C | 100% | 1017.7 hPa | - | - | - | - |
| 1787975783 | 15° C | 99% | 1017.7 hPa | - | - | - | - |
| 1787974883 | 14.44° C | 100% | 1017.6 hPa | - | - | - | - |
| 1787973983 | 15° C | 100% | 1017.7 hPa | - | - | - | - |
| 1787973083 | 13.89° C | 100% | 1017.5 hPa | - | - | - | - |
| 1787972182 | 13.89° C | 100% | 1017.5 hPa | - | - | - | - |
| 1787971282 | 13.89° C | 100% | 1017.4 hPa | - | - | - | - |
| 1787970382 | 15° C | 100% | 1017.6 hPa | - | - | - | - |
| 1787969482 | 15.56° C | 100% | 1017.7 hPa | - | - | - | - |
| 1787968582 | 15.56° C | 100% | 1017.6 hPa | - | - | - | - |
| 1787967682 | 15.56° C | 100% | 1017.6 hPa | - | - | - | - |
| 1787966782 | 15° C | 100% | 1017.5 hPa | - | - | - | - |
| 1787965882 | 15.56° C | 100% | 1017.5 hPa | - | - | - | - |
| 1787964982 | 15.56° C | 100% | 1017.4 hPa | - | - | - | - |
* Rain since midnight (hover to see other rain measurements)
** Current wind speed in m/s (hover to see current wind gust speed)